Flight Track Log - Related Links

Times and Time Zones

All times are in EDT time to prevent confusion due to time zone crossing. See the CHQ6401 flight status page for this flight to view local times or setup timezone preferences in your user account.

Time Position Orientation Groundspeed Altitude Reporting Facility
EDT Latitude Longitude Course Direction KTS MPH feet Rate Location/Type
Tue 02:44:43 PM 42.2036 -83.3556 79° East 152 175 1,100  Level Cleveland Center
Tue 02:45:56 PM 42.1453 -83.3528 178° South 197 227 3,400 1,881 Climbing Cleveland Center
Tue 02:46:57 PM 42.0872 -83.3447 174° South 227 261 5,300 1,938 Climbing Cleveland Center
Tue 02:47:32 PM 42.0417 -83.3317 168° South 245 282 6,500 2,211 Climbing Cleveland Center
Tue 02:48:32 PM 42.0394 -83.2450 92° East 259 298 8,800 2,100 Climbing Cleveland Center
Tue 02:49:00 PM 42.3146 -82.7222 78° East  Level FlightAware Approximate
Tue 02:49:32 PM 42.0606 -83.1506 73° East 275 316 10,700  Level Cleveland Center
Tue 02:50:00 PM 42.3342 -82.5941 79° East  Level FlightAware Approximate
Tue 02:50:32 PM 42.0836 -83.0453 74° East 280 322 12,400  Level Cleveland Center
Tue 02:51:32 PM 42.1069 -82.9314 75° East 291 335 13,500 1,500 Climbing Cleveland Center
Tue 02:52:32 PM 42.1300 -82.8147 75° East 306 352 15,400 1,850 Climbing Cleveland Center
Tue 02:53:32 PM 42.1531 -82.6978 75° East 318 366 17,200 1,800 Climbing Cleveland Center
Tue 02:54:32 PM 42.1781 -82.5808 74° East 318 366 19,000 1,700 Climbing Cleveland Center
Tue 02:55:32 PM 42.2053 -82.4583 73° East 318 366 20,600 1,550 Climbing Cleveland Center
Tue 02:56:32 PM 42.2300 -82.3331 75° East 330 380 22,100 1,200 Climbing Cleveland Center
Tue 02:57:32 PM 42.2403 -82.1986 84° East 341 392 23,000 450 Climbing Cleveland Center
Tue 02:58:32 PM 42.2569 -82.0561 81° East 364 419 23,000 300 Level Cleveland Center
Tue 02:59:32 PM 42.2981 -81.9278 67° East 371 427 23,600 850 Climbing Cleveland Center
Tue 03:00:32 PM 42.3642 -81.8083 53° Northeast 376 433 24,700 1,050 Climbing Cleveland Center
Tue 03:01:32 PM 42.4339 -81.6917 51° Northeast 390 449 25,700 1,050 Climbing Cleveland Center
Tue 03:02:32 PM 42.5017 -81.5717 53° Northeast 402 463 26,800 650 Climbing Cleveland Center
Tue 03:03:32 PM 42.5758 -81.4517 50° Northeast 411 473 27,000 100 Climbing Cleveland Center
Tue 03:04:32 PM 42.6536 -81.3256 50° Northeast 421 484 27,000  Level Cleveland Center
Tue 03:05:32 PM 42.7317 -81.2050 49° Northeast 426 490 27,000  Level Cleveland Center
Tue 03:06:32 PM 42.8008 -81.0981 49° Northeast 426 490 27,000  Level Cleveland Center
Tue 03:07:32 PM 42.8764 -80.9742 50° Northeast 426 490 27,000  Level Cleveland Center
Tue 03:08:32 PM 42.9414 -80.8411 56° Northeast 420 483 27,000  Level Cleveland Center
Tue 03:09:19 PM 42.9833 -80.7000 68° East 410 472 27,000  Level Toronto Center
Tue 03:10:19 PM 42.9833 -80.5500 90° East 400 460 27,000  Level Toronto Center
Tue 03:11:19 PM 43.0000 -80.4000 81° East 400 460 27,000  Level Toronto Center
Tue 03:12:19 PM 43.0000 -80.2333 90° East 420 483 27,000  Level Toronto Center
Tue 03:13:19 PM 43.0167 -80.0667 82° East 430 495 27,000  Level Toronto Center
Tue 03:14:19 PM 43.0167 -79.9000 90° East 430 495 27,000  Level Toronto Center
Tue 03:16:19 PM 43.0333 -79.5833 86° East 440 506 27,000  Level Toronto Center
Tue 03:17:19 PM 43.0500 -79.4333 81° East 440 506 27,000  Level Toronto Center
Tue 03:18:19 PM 43.0500 -79.2500 90° East 440 506 27,000  Level Toronto Center
Tue 03:19:19 PM 43.0667 -79.0833 82° East 440 506 27,000  Level Toronto Center
Tue 03:20:19 PM 43.0667 -78.9333 90° East 440 506 27,000  Level Toronto Center
Tue 03:21:19 PM 43.0833 -78.7500 83° East 440 506 27,000  Level Toronto Center
Tue 03:22:19 PM 43.0833 -78.5833 90° East 440 506 27,000  Level Toronto Center
Tue 03:23:32 PM 43.0986 -78.4194 83° East 443 510 27,000 -90 Level Cleveland Center
Tue 03:24:32 PM 43.1058 -78.2542 87° East 443 510 26,800 -900 Descending Cleveland Center
Tue 03:25:32 PM 43.1106 -78.0836 88° East 443 510 25,200 -1,700 Descending Cleveland Center
Tue 03:26:32 PM 43.1156 -77.9269 87° East 433 498 23,400 -1,750 Descending Cleveland Center
Tue 03:27:32 PM 43.1203 -77.7758 87° East 418 481 21,700 -1,700 Descending Cleveland Center
Tue 03:28:32 PM 43.1228 -77.6336 89° East 393 452 20,000 -1,700 Descending Cleveland Center
Tue 03:29:32 PM 43.1297 -77.4936 86° East 375 432 18,300 -1,900 Descending Cleveland Center
Tue 03:30:32 PM 43.1319 -77.3486 89° East 363 418 16,200 -1,900 Descending Cleveland Center
Tue 03:31:32 PM 43.1364 -77.2117 87° East 358 412 14,500 -1,700 Descending Cleveland Center
Tue 03:33:32 PM 43.1447 -76.9569 87° East 323 372 11,100 -1,257 Descending Boston Center
Tue 03:34:19 PM 43.1333 -76.8167 96° East 320 368 11,000 -449 Descending Toronto Center
Tue 03:35:19 PM 43.1500 -76.7000 79° East 310 357 10,300 -900 Descending Toronto Center
Tue 03:36:19 PM 43.1333 -76.6000 103° East 290 334 9,200 -1,150 Descending Toronto Center
Tue 03:37:19 PM 43.1333 -76.4833 90° East 310 357 8,000 -1,014 Descending Toronto Center
Tue 03:38:41 PM 43.1622 -76.3658 71° East 278 320 6,800 -881 Descending Boston Center
Tue 03:39:42 PM 43.1761 -76.2642 79° East 270 311 5,900 -885 Descending Boston Center
Tue 03:40:43 PM 43.1878 -76.1681 81° East 250 288 5,000 -1,240 Descending Boston Center
Tue 03:41:43 PM 43.2033 -76.0722 77° East 256 295 3,400 -1,304 Descending Boston Center
Tue 03:42:38 PM 43.1764 -75.9994 117° Southeast 222 255 2,500 -982 Descending Boston Center

Login

Don't have an account? Register now (free) for customized features, flight alerts, and more!